SKYSAT-C5

Last updated on Mon Sep 21 2026 00:02:46 GMT+0000 (Coordinated Universal Time)

1 41772U 16058C 26263.07081255 .00004599 00000+0 14096-3 0 9997 2 41772 97.0399 299.3852 0000753 11.6124 348.5138 15.34251121558294
UTC large
Height (km)
Speed (km/s)
/
Latitude / Longitude
Inclination (degrees)
Orbital Period (minutes)
Azimuth
Elevation
Range (km)
Doppler Factor

Next 0 passes for location: London (51.5072 / 0.1276)

No passes found over London.
SKYSAT-C5